Preview of NWS' New Version of Forecast
This preview is not operational and should not be used for support decisions.

Regional Weather Roundup (RWR)

Issued by National Weather Service (NWS)

                            
000
ASUS42 KTBW 211117
RWRFL 
FLORIDA REGIONAL WEATHER ROUNDUP
NATIONAL WEATHER SERVICE TAMPA BAY RUSKIN FL
700 AM EDT SUN JUL 21 2019

NOTE: "FAIR" INDICATES FEW OR NO CLOUDS BELOW 12,000 FEET WITH NO
SIGNIFICANT WEATHER AND/OR OBSTRUCTIONS TO VISIBILITY.

FLZ001>010-012>015-112-114-115-211200-
PANHANDLE FLORIDA
  
CITY           SKY/WX    TMP DP  RH WIND       PRES   REMARKS
PENSACOLA      CLOUDY    76  75  97 NE3       30.04R                  
PENSACOLA NAS  CLOUDY    76  75  97 CALM      30.04R                  
CRESTVIEW      FAIR      69  67  93 CALM      30.06R                  
DUKE FIELD     FAIR      70  70 100 CALM      30.05R                  
VALPARAISO     FAIR      73  71  94 N3        30.04R                  
MARY ESTHER    PTCLDY    74  71  92 CALM      30.03R                  
TRI COUNTY     FAIR      70  70 100 CALM      30.07R                  
PANAMA CITY    FAIR      72  70  93 CALM      30.05R                  
TYNDALL AFB    FAIR      76  72  89 E5        30.05R                  
APALACHICOLA   FAIR      74  72  93 N3        30.04R                  

STATION/POSITION SKY/WX   TEMP    WIND        PRES    WAVE   SWELL
                          AIR SEA DIR/SP/G            HT/PER HT/PER
                          (F)     (DEG/KT/KT) (MB)    (FT/S) (FT/S)
30.1N   87.6W              83 86  190/  4/  6 1016.9R   1/ 6   2/ 6
29.2N   88.2W              83 84  190/  6/  8 1016.5R   2/ 5   2/ 5
28.8N   86.0W                 86  130/ 10/ 12 1017.1R   1/ 4
PANAMA CITY BEAC           77 85   20/  5/  5 1017.9
TOWER C                    82     130/  5/  6 1017.9R
28.5N   84.5W              84     120/ 10/ 12 1017.7R   2/ 3

$$
FLZ011-016>038-118-127-128-134-139-239-211200-
NORTH FLORIDA
  
CITY           SKY/WX    TMP DP  RH WIND       PRES   REMARKS
MARIANNA       FAIR      72  72 100 CALM      30.06R                  
TALLAHASSEE    FAIR      73  72  96 CALM      30.06R                  
PERRY          FAIR      73  73  97 CALM      30.07R                  
LIVE OAK       CLEAR     72  72 100 CALM      30.07R                  
CROSS CITY     FAIR      71  71  98 CALM      30.06R                  
LAKE CITY      FAIR      70  70 100 CALM      30.07S                  
GAINESVILLE    FAIR      71  69  93 CALM      30.09R                  
WILLISTON      FAIR      71  71  99 CALM      30.07R                  
PALATKA        FAIR      70  68  94 CALM      30.08R                  
MAYPORT NAS    FAIR      76  73  91 SW3       30.07R                  
JACKSONVILLE   FAIR      72  72 100 S3        30.06R                  
JAX CECIL      CLEAR     70  68  94 CALM      30.07S                  
FERNANDINA BEA FAIR      76  74  95 S6        30.06R                  
ST AUGUSTINE   FAIR      74  71  91 SW5       30.08S                  
PALM COAST     CLEAR     73  72  94 CALM      30.07S                  

STATION/POSITION SKY/WX   TEMP    WIND        PRES    WAVE   SWELL
                          AIR SEA DIR/SP/G            HT/PER HT/PER
                          (F)     (DEG/KT/KT) (MB)    (FT/S) (FT/S)
SHELL POINT      NOT AVBL
KEATON BEACH               74     110/  5/  6 1017.8R
CEDAR KEY                  79     130/  9/ 10 1018.2R
FERNANDINA                 79 86  170/  4/  5 1018.5
30.7N   81.3W                 83                N/A     2/ 8
MAYPORT                    76 83  180/  3/  5 1018.2
31.4N   80.9W              82 83  200/  6/  8 1017.6R   2/ 8   2/ 8
ST AUGUSTINE               78 76  210/  3/  3 1018.6R

$$
FLZ040-043>046-052-053-057-058-063-144-211200-
INTERIOR CENTRAL FLORIDA
  
CITY           SKY/WX    TMP DP  RH WIND       PRES   REMARKS
OCALA          FAIR      71  71 100 CALM      30.08R                  
LEESBURG       FAIR      77  75  93 NE5       30.08R                  
SANFORD        FAIR      76  75  97 CALM      30.07R                  
ORLANDO EXEC   FAIR      78  75  90 CALM      30.07R                  
ORLANDO INTL   FAIR      77  75  93 CALM      30.06R                  
KISSIMMEE      FAIR      77  75  93 CALM      30.08R                  
WINTER HAVEN   FAIR      77  75  93 CALM      30.08R                  
LAKELAND       CLEAR     75  73  94 CALM      30.07R                  
BARTOW         FAIR      75  73  94 CALM      30.06R                  
SEBRING        FAIR      74  73  98 N3        30.06R                  

$$
FLZ041-047-054-059-064-141-147-211200-
EAST CENTRAL FLORIDA
  
CITY           SKY/WX    TMP DP  RH WIND       PRES   REMARKS
ORMOND BEACH   CLEAR     73  73 100 CALM      30.07  FOG              
DAYTONA BEACH  FAIR      75  75 100 CALM      30.07R                  
DELAND         FAIR      73  72  94 CALM      30.07R                  
NEW SMYRNA BEA PTCLDY    75  75 100 CALM      30.08                   
JFK SPACE CTR  CLEAR     74  66  74 N5        30.06R                  
TITUSVILLE     PTCLDY    77  73  88 CALM      30.07  HAZE             
CAPE CANAVERAL CLEAR     74  57  53 CALM      30.05R                  
PATRICK AFB    FAIR      80  80 100 CALM      30.06R                  
MELBOURNE      FAIR      77  74  90 NW3       30.05S                  
VERO BEACH     FAIR      73  72  96 CALM      30.05R                  
FT PIERCE      FAIR      73  71  93 CALM      30.05R                  
STUART         PTCLDY    77  73  88 CALM      30.07R                  

STATION/POSITION SKY/WX   TEMP    WIND        PRES    WAVE   SWELL
                          AIR SEA DIR/SP/G            HT/PER HT/PER
                          (F)     (DEG/KT/KT) (MB)    (FT/S) (FT/S)
28.5N   80.2W              83 83  160/  4/  6 1017.9R   2/ 8   2/ 8
28.9N   78.5W              84 86  130/  8/ 12   N/A     2/ 8   2/ 8
TRIDENT PIER               81 84  200/  3/  4 1019.1
28.4N   80.5W                 82                N/A     2/ 8
27.5N   80.2W                 83                N/A     1/ 8

$$
FLZ050-056-061-142-242-148-248-149-249-151-251-155-255-
160-260-211200-
WEST CENTRAL FLORIDA
  
CITY           SKY/WX    TMP DP  RH WIND       PRES   REMARKS
CRYSTAL RIVER  FAIR      72  72 100 CALM      30.06S                  
INVERNESS      FAIR      72  72 100 CALM      30.07S FOG              
BROOKSVILLE    FAIR      75  73  93 NE3       30.06S                  
CLEARWATER AIR FAIR      73  72  94 CALM      30.05R                  
ST PETE CLEARW FAIR      76  74  93 E6        30.05R                  
TAMPA INTL     FAIR      76  72  87 VRB3      30.06R                  
TAMPA EXEC     FAIR      72  72 100 CALM      30.06S                  
PLANT CITY     FAIR     N/A N/A N/A MISG      30.08R                  
MACDILL AFB    FAIR      75  73  93 CALM      30.06R                  
PETER O KNIGHT CLOUDY   N/A N/A N/A NE3       30.06R                  
ST PETERSBURG  FAIR      80  75  84 E7        30.04R                  
SARASOTA       FAIR      75  73  93 E3        30.02S                  
VENICE         FAIR      75  73  94 NE7       30.04S                  

STATION/POSITION SKY/WX   TEMP    WIND        PRES    WAVE   SWELL
                          AIR SEA DIR/SP/G            HT/PER HT/PER
                          (F)     (DEG/KT/KT) (MB)    (FT/S) (FT/S)
27.3N   84.2W                 86                N/A     3/ 4
CLEARWATER BEACH           78 88   70/  5/  6 1017.5
MIDDLE TAMPA BAY           78     130/  7/  9 1017.3
VENICE                     74 86   50/  6/  7 1016.9R

$$
FLZ066-069-070-075>078-162-262-165-265-211200-
SOUTHWEST FLORIDA AND KEYS
  
CITY           SKY/WX    TMP DP  RH WIND       PRES   REMARKS
PUNTA GORDA    FAIR      74  74 100 E3        30.06R                  
FT MYERS       FAIR      74  73  97 CALM      30.04R                  
SOUTHWEST INTL FAIR      75  73  93 N3        30.04R                  
MARCO ISLAND   FAIR      75  74  96 MISG      30.04R                  
IMMOKALEE      FAIR      75  73  94 CALM      30.03R                  
MARATHON       FAIR      83  73  72 E6        30.02R                  
KEY WEST NAS   FAIR      83  74  74 SE6       30.02R                  
KEY WEST INTL  FAIR      83  73  72 SE9       30.02R                  

STATION/POSITION SKY/WX   TEMP    WIND        PRES    WAVE   SWELL
                          AIR SEA DIR/SP/G            HT/PER HT/PER
                          (F)     (DEG/KT/KT) (MB)    (FT/S) (FT/S)
NAPLES                     77 85              1016.5
26.0N   85.6W              84 85  140/  8/ 12 1016.2R   2/ 8   2/ 8
DRY TORTUGAS               83     140/  9/ 10 1016.1R
SAND KEY                   83     130/ 10/ 13 1015.3R
SOMBRERO KEY               84     110/  9/ 12 1016.8R
LONG KEY                   84                 1016.1R

$$
FLZ067-068-071>074-168-172>174-211200-
SOUTHEAST FLORIDA 
  
CITY           SKY/WX    TMP DP  RH WIND       PRES   REMARKS
W PALM BEACH   FAIR      79  73  82 N3        30.05R                  
BOCA RATON     CLEAR     77  73  88 CALM      30.04                   
FT LAUDER-EXEC FAIR      76  74  93 SE3       30.03S                  
FT LAUDERDALE  FAIR      78  74  87 CALM      30.03R                  
POMPANO BEACH  FAIR      78  74  87 CALM      30.04R                  
PEMBROKE PINES FAIR      79  74  84 CALM      30.06R                  
OPA LOCKA      FAIR      79  75  87 CALM      30.05R                  
MIAMI          MOCLDY    80  73  79 CALM      30.04R                  
WEST KENDALL   FAIR      78  74  87 CALM      30.04R                  
HOMESTEAD      FAIR      77  75  93 N3        30.03R                  

STATION/POSITION SKY/WX   TEMP    WIND        PRES    WAVE   SWELL
                          AIR SEA DIR/SP/G            HT/PER HT/PER
                          (F)     (DEG/KT/KT) (MB)    (FT/S) (FT/S)
VIRGINIA KEY               82 88  160/  2/  3 1016.9
LAKE WORTH                 80 84  340/  2/  3 1018.2
FOWEY ROCKS                82 85  100/  4/  5 1017.5R
SETTLEMENT POINT           83     120/  8/  9 1017.6R

$$